SCP
0 0 0 0 0 0 0 0 0 0 0 0 0 0 1 1 0 0 0 0 1 1 1 1 2 2 2 3 2 3 3 2
0 0 0 0 0 0 0 0 0 0 0 0 0 0 0 0 0 0 0 0 0 0 0 1 1 1 1 2 3 4 3 3
0 0 0 0 0 0 0 0 0 0 0 0 0 0 0 0 0 0 0 0 0 0 0 0 1 1 1 1 3 4 3 3
0 0 0 0 0 0 0 0 0 0 0 0 0 0 0 0 0 0 0 0 0 0 0 0 1 1 1 1 3 3 2 2
0 0 0 0 0 0 0 0 0 0 0 0 0 0 0 0 0 0 0 0 0 0 0 0 1 1 1 0 2 3 2 2
0 0 0 0 0 0 0 0 0 0 0 0 0 0 0 0 0 0 0 0 0 0 0 1 1 1 0 0 1 3 3 4
0 0 0 0 0 0 0 0 0 0 0 0 0 0 0 0 0 0 0 0 0 0 0 0 1 1 0 0 3 3 3 3
0 0 0 0 0 0 0 0 0 0 0 0 0 0 0 0 0 0 0 0 0 0 0 0 1 1 0 0 4 4 3 3
0 0 0 0 0 0 0 0 0 0 0 0 0 0 0 0 0 0 0 0 -0 0 0 1 1 1 0 0 2 2 2 2
0 0 0 0 0 0 0 0 0 0 0 0 0 -0 -0 -0 0 0 0 0 -0 0 0 1 2 1 0 0 0 1 1 1
0 0 0 0 0 0 0 0 0 0 0 0 -0 0 0 -0 -0 0 0 0 0 0 0 1 2 0 0 0 0 0 1 1
0 -0 0 0 0 -0 -0 -0 0 -0 -0 0 0 0 0 0 0 0 0 0 0 0 1 2 1 0 0 0 0 0 0 0
-0 -0 -0 -0 -0 -0 -0 -0 -0 -0 0 0 -0 -0 0 0 0 -0 0 0 -0 1 1 1 1 0 0 0 0 0 0 0
-0 -0 -0 0 0 0 -0 -0 -0 0 0 -0 0 0 0 -0 0 -0 0 0 1 1 1 1 0 0 0 0 0 0 0 0
-0 -0 -0 -0 0 -0 0 0 -0 -0 -0 0 0 0 -0 -0 -0 0 0 0 0 0 0 0 0 0 0 0 0 0 0 0
-0 0 0 -0 -0 0 -0 -0 -0 0 0 0 0 0 -0 -0 0 0 0 0 0 0 0 0 0 0 0 0 0 0 0 0
-0 0 0 -0 -0 -0 -0 0 0 0 0 0 0 -0 -0 0 0 0 0 0 0 0 0 0 0 0 0 0 0 0 0 0
-0 -0 0 -0 -0 -0 0 0 0 0 0 0 0 0 0 0 0 0 0 0 0 0 0 0 0 0 0 0 0 0 0 0
0 0 0 0 0 0 0 0 0 0 0 0 0 0 0 0 0 0 0 0 0 0 0 0 0 0 0 0 0 0 0 0
0 0 0 0 0 0 0 0 0 0 0 0 0 0 0 0 0 0 0 0 0 0 0 0 0 0 0 0 0 0 0 0
Wind_Speed_500mb
31 26 23 20 24 27 27 30 32 37 28 31 38 40 37 38 44 47 53 58 55 53 50 60 59 61 68 69 63 72 77 74
35 28 27 27 28 30 29 33 32 37 38 41 43 43 48 58 59 60 58 55 59 61 58 55 61 66 65 71 73 75 71 68
62 28 22 29 32 33 36 37 38 39 40 44 47 50 55 59 62 63 65 62 57 60 64 60 63 67 71 71 73 76 59 66
26 24 14 28 31 32 33 33 32 38 48 54 53 59 62 65 66 69 70 69 66 70 73 67 60 67 70 71 75 66 61 62
21 77 33 24 26 36 42 45 50 54 57 57 59 65 72 76 76 73 75 75 66 70 70 68 62 73 66 68 75 67 61 62
46 38 38 41 46 49 51 51 55 57 60 62 65 68 74 78 79 81 78 73 72 72 75 71 69 75 62 69 75 67 61 65
49 54 59 60 58 55 63 67 68 69 75 79 84 85 85 79 77 82 82 73 74 77 79 75 70 72 65 72 75 69 57 49
59 58 63 62 64 67 67 67 70 69 69 70 70 77 85 82 82 82 81 76 75 75 84 79 71 67 64 73 82 62 51 47
75 74 70 73 66 59 63 65 69 78 85 81 81 76 79 89 72 79 74 70 71 79 79 68 69 68 72 73 69 57 55 52
79 77 74 72 67 66 72 70 85 78 72 70 71 73 76 80 75 67 77 83 83 84 72 68 65 71 72 75 67 60 48 58
74 73 75 69 65 63 63 72 77 67 64 66 67 69 74 69 78 76 77 79 76 73 67 67 68 74 76 70 69 58 56 51
72 67 63 61 56 60 66 69 65 63 63 65 60 64 68 71 72 70 72 75 74 70 61 69 80 78 85 89 64 62 58 45
65 64 69 71 63 61 65 63 59 68 67 60 63 59 66 73 67 69 71 76 70 64 72 80 71 86 98 88 72 65 59 48
65 63 70 75 64 62 67 69 59 58 61 64 62 57 59 64 66 58 70 60 63 73 81 72 68 82 90 79 63 53 47 43
73 73 71 68 65 66 63 54 46 49 53 60 56 53 56 51 42 40 63 69 69 64 58 48 62 72 73 64 53 45 41 35
73 73 66 62 61 66 59 47 49 56 53 46 47 45 52 40 52 75 73 74 76 61 54 56 51 50 52 52 48 44 40 28
67 66 68 64 59 62 50 41 41 33 36 40 28 30 42 49 76 79 84 87 82 77 71 63 52 47 49 49 43 40 37 34
61 70 66 65 65 60 46 36 35 40 32 21 52 50 80 82 72 74 82 80 79 78 74 66 59 56 55 50 36 26 34 32
48 54 49 50 57 51 38 32 37 29 43 58 52 54 67 70 63 72 75 68 61 65 63 58 52 53 48 41 35 33 31 38
26 30 22 16 36 49 36 30 30 36 48 58 71 76 75 71 71 67 60 62 57 60 63 54 46 45 46 38 41 36 39 43
Wind_Direction_500mb
242 242 235 253 274 277 268 274 276 276 275 269 275 276 275 270 268 268 266 265 265 268 255 263 255 250 241 248 244 238 234 238
247 223 231 234 248 258 274 283 280 277 276 272 273 275 275 269 268 272 276 272 270 268 256 257 259 249 246 237 239 240 237 228
246 216 251 244 249 250 257 258 260 268 277 279 280 280 281 283 282 277 276 276 270 265 266 249 257 248 244 235 233 236 233 216
311 259 234 271 281 281 281 288 280 270 269 270 282 282 283 283 279 275 274 272 269 268 264 254 256 248 244 238 230 229 213 217
310 287 299 300 304 296 298 295 290 281 276 274 274 277 276 278 279 273 269 269 269 268 264 261 248 244 245 233 225 221 211 208
324 323 310 304 302 294 289 287 283 280 277 274 273 275 275 269 270 268 266 264 265 265 261 263 248 240 240 224 219 209 207 209
306 300 300 298 293 290 284 281 281 278 275 273 272 273 265 266 264 260 263 259 260 260 263 265 247 239 233 218 214 205 202 207
296 294 290 284 284 282 283 280 277 272 271 268 264 262 261 260 263 256 258 257 256 256 266 262 244 238 222 213 207 195 193 196
294 288 284 284 280 277 278 274 269 270 271 271 270 263 258 254 267 252 253 253 259 259 264 249 239 226 211 205 206 190 195 192
292 289 284 283 283 282 279 267 275 280 279 271 266 262 259 259 258 255 253 252 258 259 252 241 228 215 206 202 196 185 191 182
289 286 284 282 278 275 269 270 281 281 277 269 264 258 254 241 248 254 253 250 251 253 240 223 202 201 191 191 176 178 181 188
284 281 277 278 276 272 272 275 282 282 272 268 265 262 256 249 254 253 250 248 254 234 223 194 192 188 180 171 173 168 174 169
282 281 281 279 280 278 276 278 274 275 267 265 260 257 256 254 259 258 246 253 227 217 199 187 192 180 172 176 171 168 174 178
281 276 278 280 279 275 273 274 273 270 266 262 256 256 253 258 259 246 232 219 199 197 192 185 171 170 175 175 176 179 187 194
281 281 280 280 278 276 270 272 259 264 254 259 262 256 255 230 224 204 164 165 170 161 185 184 175 173 170 175 180 180 183 189
286 285 282 278 275 269 266 261 261 259 256 258 258 245 201 201 188 178 149 143 139 137 141 149 159 163 170 169 169 168 165 176
286 281 277 271 264 262 261 252 250 259 260 253 217 195 202 171 145 138 146 145 141 142 144 147 151 155 160 159 161 168 164 162
283 275 270 262 255 249 249 249 242 250 257 213 158 171 142 143 132 136 144 138 134 138 142 143 147 150 150 152 149 156 162 152
290 280 276 263 244 231 216 227 236 222 216 159 154 145 146 133 124 133 142 133 134 145 143 142 147 150 144 144 151 156 165 160
33 59 94 101 161 164 171 191 196 165 157 152 145 136 134 128 122 127 126 131 140 137 136 131 130 137 145 147 153 151 146 156
Wind_Speed_850mb
31 26 23 20 24 27 27 30 32 37 28 31 38 40 37 38 44 47 53 58 55 53 50 60 59 61 68 69 63 72 77 74
35 28 27 27 28 30 29 33 32 37 38 41 43 43 48 58 59 60 58 55 59 61 58 55 61 66 65 71 73 75 71 68
62 28 22 29 32 33 36 37 38 39 40 44 47 50 55 59 62 63 65 62 57 60 64 60 63 67 71 71 73 76 59 66
26 24 14 28 31 32 33 33 32 38 48 54 53 59 62 65 66 69 70 69 66 70 73 67 60 67 70 71 75 66 61 62
21 77 33 24 26 36 42 45 50 54 57 57 59 65 72 76 76 73 75 75 66 70 70 68 62 73 66 68 75 67 61 62
46 38 38 41 46 49 51 51 55 57 60 62 65 68 74 78 79 81 78 73 72 72 75 71 69 75 62 69 75 67 61 65
49 54 59 60 58 55 63 67 68 69 75 79 84 85 85 79 77 82 82 73 74 77 79 75 70 72 65 72 75 69 57 49
59 58 63 62 64 67 67 67 70 69 69 70 70 77 85 82 82 82 81 76 75 75 84 79 71 67 64 73 82 62 51 47
75 74 70 73 66 59 63 65 69 78 85 81 81 76 79 89 72 79 74 70 71 79 79 68 69 68 72 73 69 57 55 52
79 77 74 72 67 66 72 70 85 78 72 70 71 73 76 80 75 67 77 83 83 84 72 68 65 71 72 75 67 60 48 58
74 73 75 69 65 63 63 72 77 67 64 66 67 69 74 69 78 76 77 79 76 73 67 67 68 74 76 70 69 58 56 51
72 67 63 61 56 60 66 69 65 63 63 65 60 64 68 71 72 70 72 75 74 70 61 69 80 78 85 89 64 62 58 45
65 64 69 71 63 61 65 63 59 68 67 60 63 59 66 73 67 69 71 76 70 64 72 80 71 86 98 88 72 65 59 48
65 63 70 75 64 62 67 69 59 58 61 64 62 57 59 64 66 58 70 60 63 73 81 72 68 82 90 79 63 53 47 43
73 73 71 68 65 66 63 54 46 49 53 60 56 53 56 51 42 40 63 69 69 64 58 48 62 72 73 64 53 45 41 35
73 73 66 62 61 66 59 47 49 56 53 46 47 45 52 40 52 75 73 74 76 61 54 56 51 50 52 52 48 44 40 28
67 66 68 64 59 62 50 41 41 33 36 40 28 30 42 49 76 79 84 87 82 77 71 63 52 47 49 49 43 40 37 34
61 70 66 65 65 60 46 36 35 40 32 21 52 50 80 82 72 74 82 80 79 78 74 66 59 56 55 50 36 26 34 32
48 54 49 50 57 51 38 32 37 29 43 58 52 54 67 70 63 72 75 68 61 65 63 58 52 53 48 41 35 33 31 38
26 30 22 16 36 49 36 30 30 36 48 58 71 76 75 71 71 67 60 62 57 60 63 54 46 45 46 38 41 36 39 43
Wind_Direction_850mb
242 242 235 253 274 277 268 274 276 276 275 269 275 276 275 270 268 268 266 265 265 268 255 263 255 250 241 248 244 238 234 238
247 223 231 234 248 258 274 283 280 277 276 272 273 275 275 269 268 272 276 272 270 268 256 257 259 249 246 237 239 240 237 228
246 216 251 244 249 250 257 258 260 268 277 279 280 280 281 283 282 277 276 276 270 265 266 249 257 248 244 235 233 236 233 216
311 259 234 271 281 281 281 288 280 270 269 270 282 282 283 283 279 275 274 272 269 268 264 254 256 248 244 238 230 229 213 217
310 287 299 300 304 296 298 295 290 281 276 274 274 277 276 278 279 273 269 269 269 268 264 261 248 244 245 233 225 221 211 208
324 323 310 304 302 294 289 287 283 280 277 274 273 275 275 269 270 268 266 264 265 265 261 263 248 240 240 224 219 209 207 209
306 300 300 298 293 290 284 281 281 278 275 273 272 273 265 266 264 260 263 259 260 260 263 265 247 239 233 218 214 205 202 207
296 294 290 284 284 282 283 280 277 272 271 268 264 262 261 260 263 256 258 257 256 256 266 262 244 238 222 213 207 195 193 196
294 288 284 284 280 277 278 274 269 270 271 271 270 263 258 254 267 252 253 253 259 259 264 249 239 226 211 205 206 190 195 192
292 289 284 283 283 282 279 267 275 280 279 271 266 262 259 259 258 255 253 252 258 259 252 241 228 215 206 202 196 185 191 182
289 286 284 282 278 275 269 270 281 281 277 269 264 258 254 241 248 254 253 250 251 253 240 223 202 201 191 191 176 178 181 188
284 281 277 278 276 272 272 275 282 282 272 268 265 262 256 249 254 253 250 248 254 234 223 194 192 188 180 171 173 168 174 169
282 281 281 279 280 278 276 278 274 275 267 265 260 257 256 254 259 258 246 253 227 217 199 187 192 180 172 176 171 168 174 178
281 276 278 280 279 275 273 274 273 270 266 262 256 256 253 258 259 246 232 219 199 197 192 185 171 170 175 175 176 179 187 194
281 281 280 280 278 276 270 272 259 264 254 259 262 256 255 230 224 204 164 165 170 161 185 184 175 173 170 175 180 180 183 189
286 285 282 278 275 269 266 261 261 259 256 258 258 245 201 201 188 178 149 143 139 137 141 149 159 163 170 169 169 168 165 176
286 281 277 271 264 262 261 252 250 259 260 253 217 195 202 171 145 138 146 145 141 142 144 147 151 155 160 159 161 168 164 162
283 275 270 262 255 249 249 249 242 250 257 213 158 171 142 143 132 136 144 138 134 138 142 143 147 150 150 152 149 156 162 152
290 280 276 263 244 231 216 227 236 222 216 159 154 145 146 133 124 133 142 133 134 145 143 142 147 150 144 144 151 156 165 160
33 59 94 101 161 164 171 191 196 165 157 152 145 136 134 128 122 127 126 131 140 137 136 131 130 137 145 147 153 151 146 156